Wind_Speed
23 23 24 25 25 26 26 26 26 26 26 26 26 26 26 26 26 26 26 25 24 24 24 23 22 22 22 22 22 22 22 22 22 22 22 22 21 21 21 20 20 20 20
24 25 24 24 25 25 26 26 26 27 27 28 27 27 27 27 27 27 26 26 25 25 25 25 24 24 24 24 24 23 23 23 23 23 22 22 22 21 21 20 20 20 20
25 25 24 24 24 25 26 26 26 27 28 28 28 28 28 27 27 27 26 26 26 26 26 25 25 25 25 25 25 25 25 24 23 23 22 22 22 22 21 21 21 20 20
26 26 24 24 24 25 26 27 27 27 27 27 27 27 27 27 27 27 27 27 27 27 26 27 26 26 26 25 25 25 24 23 23 23 22 22 22 22 22 22 22 22 21
25 25 24 25 25 25 26 27 27 27 27 27 26 26 27 27 27 27 27 27 28 28 27 28 28 27 27 27 25 25 24 24 23 23 23 23 22 22 22 22 23 23 23
25 25 25 26 26 26 26 26 26 27 27 27 26 26 26 27 27 26 27 27 27 27 28 28 28 29 28 28 28 26 25 25 24 24 24 24 23 23 23 23 24 24 24
26 26 26 26 27 27 27 27 26 27 27 27 26 26 26 26 26 27 27 27 26 27 28 29 29 29 28 27 27 26 26 26 26 25 25 25 25 25 25 25 25 26 25
26 26 27 27 28 27 27 27 27 27 28 28 27 27 27 26 26 26 26 27 27 27 27 28 29 29 29 28 28 28 28 27 27 27 26 26 26 26 26 26 26 26 27
26 26 27 27 28 28 28 28 27 27 28 28 28 27 27 27 26 26 26 26 26 27 28 28 29 29 29 28 29 29 29 28 28 28 27 27 27 27 27 27 27 27 27
26 26 27 28 28 28 28 28 28 28 28 28 27 27 26 26 26 26 26 25 26 27 27 28 28 29 29 30 29 29 28 28 28 27 27 27 27 27 27 28 28 27 27
26 26 27 28 28 28 28 29 28 28 27 27 27 26 26 26 25 25 25 26 26 26 27 27 27 28 29 29 28 29 28 28 28 27 27 28 28 28 28 28 28 28 28
26 26 27 27 27 27 27 27 27 27 26 26 26 26 25 25 25 25 25 25 26 27 26 26 26 27 28 28 27 27 27 28 27 27 27 27 28 28 28 28 29 29 29
26 26 26 26 26 26 27 26 25 25 25 25 25 25 25 24 24 24 24 25 26 27 27 26 26 26 27 27 26 27 27 27 28 27 27 27 28 28 28 29 29 29 29
26 26 26 26 26 27 27 26 25 25 25 25 25 25 25 25 24 24 25 25 26 27 27 27 27 27 27 27 27 27 27 27 28 28 27 27 27 28 28 28 29 28 28
27 26 26 26 26 26 25 25 25 25 25 25 25 25 25 25 25 25 26 26 26 26 26 26 26 26 26 26 26 26 26 27 28 28 28 28 28 28 28 28 28 28 29
27 27 26 26 26 25 25 23 24 24 25 25 25 26 26 26 26 26 25 25 26 26 26 25 26 26 27 26 26 26 26 26 26 27 28 28 28 28 28 28 28 28 28
27 27 26 26 26 26 25 24 24 25 26 26 26 26 26 26 26 25 26 26 26 26 26 25 25 25 25 26 26 26 26 26 26 26 27 28 28 28 27 27 28 28 28
27 27 26 26 25 25 25 25 25 25 25 25 25 26 26 26 25 25 26 26 25 25 25 24 24 24 25 25 26 25 26 27 27 27 27 27 28 28 28 28 28 28 27
28 27 27 27 26 26 26 25 25 24 24 24 24 24 25 25 25 25 25 25 24 24 24 23 24 24 25 25 25 25 26 26 26 27 27 28 28 28 27 27 28 28 28
28 28 28 27 27 27 26 26 25 25 23 24 24 24 24 24 24 24 24 24 23 24 24 24 24 24 25 26 26 26 27 27 27 27 28 28 28 28 28 28 28 28 28
28 28 28 28 28 27 27 27 26 25 24 24 24 25 24 24 23 22 22 22 23 23 23 23 23 24 25 26 27 27 27 27 28 28 28 28 28 29 29 29 30 29 29
29 28 28 28 29 28 27 26 27 25 25 24 24 24 24 24 23 23 23 23 23 23 23 23 24 24 25 25 26 26 27 27 27 27 27 27 28 29 30 30 29 30 30
28 27 27 28 28 28 28 27 26 25 25 25 24 24 23 23 23 23 24 24 24 25 24 24 25 25 25 25 26 26 27 28 27 27 27 26 27 28 28 28 28 29 29
28 28 28 28 28 28 27 27 26 25 24 24 24 23 23 23 23 24 25 25 25 25 24 24 24 25 25 25 26 26 26 26 27 26 27 27 27 27 28 28 28 29 29
29 29 29 29 28 28 27 26 25 24 24 24 24 23 23 23 24 25 25 26 25 25 25 25 25 25 25 25 25 25 25 25 26 26 27 27 27 27 27 27 27 27 27
29 29 29 28 28 27 27 26 25 24 24 24 24 24 24 24 24 25 25 25 26 26 26 25 25 25 25 25 25 25 25 25 26 26 26 26 26 26 26 26 25 25 26
Wind_Direction
288 287 285 283 281 280 279 280 280 279 279 279 280 280 279 277 275 276 274 272 270 270 270 269 269 269 269 269 270 271 271 271 270 270 271 272 271 270 271 271 271 269 267
288 287 286 284 282 281 280 279 279 279 279 279 279 279 279 277 275 274 273 271 267 267 268 269 269 269 269 269 269 271 271 272 272 270 269 269 269 269 270 271 272 271 268
287 288 287 285 282 281 279 279 279 279 279 278 277 278 279 278 276 274 271 269 267 266 266 267 268 268 268 268 269 270 271 271 271 269 268 267 266 268 268 270 271 270 267
285 287 286 285 282 281 280 279 278 278 278 278 278 277 277 277 276 274 270 268 266 265 266 266 267 267 268 268 270 269 269 268 268 268 268 267 267 267 269 270 269 268 267
286 286 285 284 284 282 281 281 278 276 276 276 276 276 276 276 276 274 271 269 266 264 265 265 266 267 268 269 269 267 266 266 266 266 267 268 268 268 268 269 269 267 266
286 286 285 284 284 284 282 282 280 276 274 274 275 276 276 276 275 274 272 269 266 265 263 264 266 266 267 268 267 266 266 265 265 266 267 267 267 267 269 270 269 268 267
285 285 285 285 286 287 284 282 280 277 274 273 274 275 276 277 277 275 271 268 266 264 263 264 265 266 266 267 265 265 265 264 264 266 267 268 268 267 268 269 269 267 265
285 285 285 286 287 287 285 283 280 278 274 273 273 274 275 277 278 275 270 269 265 266 266 265 265 265 267 267 266 264 265 265 266 266 267 267 267 267 268 268 267 267 266
285 286 287 287 288 287 285 283 280 279 277 273 274 275 276 277 276 273 271 269 266 267 267 267 266 265 266 267 267 265 265 266 266 267 266 266 266 267 267 268 269 268 267
288 288 288 288 288 287 286 284 282 279 278 275 274 277 277 277 275 273 273 270 269 269 268 268 267 266 265 265 265 266 266 266 266 267 265 265 266 266 267 268 269 268 267
291 292 291 290 289 287 286 284 282 280 278 276 276 277 278 278 276 274 273 271 270 270 270 269 267 267 266 266 265 265 266 266 266 266 265 266 265 265 268 269 268 267 267
295 295 293 292 291 288 287 285 282 280 277 275 276 277 278 278 276 274 273 273 272 271 271 270 269 268 268 267 265 265 265 264 264 265 266 264 264 265 267 269 269 268 267
296 297 296 293 292 289 287 285 282 280 277 276 277 278 279 278 276 274 273 273 273 272 271 270 270 269 268 267 266 265 265 264 265 265 266 266 265 263 265 267 268 268 268
298 298 296 295 292 289 286 283 282 280 277 276 277 277 277 276 274 273 274 274 274 272 271 269 270 269 267 267 267 266 265 265 266 266 266 268 267 264 265 266 266 265 266
297 298 297 295 294 291 287 285 284 282 279 277 277 276 275 275 275 275 275 275 274 272 271 270 269 268 268 267 267 266 266 266 266 265 267 267 267 266 266 265 266 267 267
295 297 296 295 294 292 290 287 284 281 279 277 277 276 275 277 277 276 277 277 275 273 272 270 269 270 270 268 267 266 266 267 267 267 268 267 267 267 267 267 267 268 269
295 296 296 296 294 292 290 287 286 284 282 279 277 277 277 277 278 278 278 277 276 274 272 272 270 270 270 269 268 267 266 266 267 268 268 267 266 266 267 268 269 269 270
293 294 295 295 293 291 289 287 287 286 283 281 281 279 278 277 278 279 279 280 278 275 273 271 270 269 269 269 268 266 266 265 266 266 267 268 266 266 268 268 269 270 271
292 293 293 293 291 290 289 288 287 287 285 283 281 279 278 276 277 279 281 281 280 278 275 273 271 269 269 269 267 265 265 266 266 265 265 267 266 266 267 268 269 270 271
291 291 292 290 290 290 291 290 288 287 284 284 282 281 279 276 275 276 277 278 278 277 276 275 272 271 270 269 267 265 265 266 267 266 265 266 266 267 268 269 270 270 272
289 290 290 290 290 291 290 288 287 285 283 284 282 282 280 278 278 277 276 276 277 278 279 277 275 273 272 270 270 268 265 266 266 266 266 266 267 268 269 270 270 271 272
287 287 288 289 289 289 288 286 286 283 282 282 282 280 277 277 277 277 277 277 278 279 277 277 277 276 275 273 273 270 267 268 268 268 268 268 268 269 270 269 269 271 272
286 285 286 287 288 288 287 287 284 281 281 280 279 278 277 276 276 276 277 278 278 279 277 275 277 277 275 272 273 271 269 267 267 268 269 270 270 271 271 270 271 272 271
285 284 283 284 286 287 287 285 284 281 279 278 277 277 276 276 277 277 278 280 281 281 279 276 275 275 274 273 273 273 272 269 267 268 270 271 272 272 273 273 273 272 272
285 284 283 282 283 285 285 285 282 277 276 277 278 278 276 276 277 277 278 280 280 280 278 276 275 276 276 276 276 276 274 272 270 269 269 270 272 273 275 275 274 273 273
285 283 283 283 282 283 283 282 280 277 276 277 277 278 277 276 276 277 278 280 280 280 278 276 277 277 277 276 275 275 274 273 272 271 271 272 273 274 274 274 274 274 275
Height
5778 5776 5774 5773 5771 5770 5769 5769 5768 5767 5766 5766 5765 5765 5764 5764 5763 5762 5762 5761 5761 5762 5762 5762 5762 5762 5762 5762 5762 5761 5761 5760 5760 5760 5759 5758 5758 5757 5757 5757 5757 5756 5756
5771 5769 5767 5765 5763 5762 5761 5760 5760 5759 5759 5758 5757 5757 5756 5756 5755 5754 5754 5754 5754 5754 5755 5755 5755 5755 5755 5755 5754 5754 5754 5753 5753 5752 5752 5752 5751 5751 5751 5750 5750 5750 5750
5763 5761 5759 5758 5756 5754 5753 5752 5752 5751 5750 5750 5749 5748 5748 5747 5747 5746 5746 5746 5746 5746 5747 5748 5748 5748 5748 5747 5747 5746 5746 5745 5745 5745 5745 5744 5744 5744 5744 5744 5744 5743 5743
5755 5753 5751 5750 5748 5747 5745 5744 5743 5743 5742 5741 5741 5740 5739 5739 5738 5738 5737 5737 5738 5738 5739 5739 5740 5740 5740 5739 5739 5738 5738 5738 5737 5737 5737 5737 5737 5737 5737 5737 5737 5737 5737
5747 5745 5743 5742 5740 5739 5737 5736 5735 5734 5733 5733 5732 5732 5731 5730 5730 5729 5729 5729 5729 5730 5730 5731 5731 5731 5731 5731 5730 5730 5730 5730 5730 5730 5730 5730 5730 5730 5730 5730 5730 5730 5730
5739 5737 5735 5734 5732 5731 5729 5727 5726 5725 5724 5724 5723 5723 5722 5722 5721 5720 5720 5720 5721 5721 5722 5722 5722 5722 5722 5722 5722 5722 5722 5722 5722 5723 5723 5723 5723 5723 5723 5722 5722 5722 5723
5730 5729 5727 5725 5724 5722 5720 5719 5717 5716 5715 5715 5714 5714 5713 5713 5712 5711 5711 5711 5711 5712 5712 5713 5713 5712 5712 5713 5712 5713 5713 5713 5714 5715 5715 5715 5715 5715 5715 5715 5714 5714 5714
5722 5720 5719 5717 5715 5713 5711 5710 5708 5707 5706 5706 5705 5705 5705 5704 5703 5703 5702 5702 5702 5702 5703 5703 5703 5703 5703 5703 5704 5703 5704 5704 5705 5706 5706 5706 5706 5706 5706 5706 5706 5706 5706
5714 5712 5710 5708 5706 5704 5702 5701 5699 5698 5697 5696 5696 5696 5696 5696 5695 5694 5693 5693 5693 5693 5693 5693 5693 5694 5694 5694 5694 5695 5695 5695 5695 5696 5696 5697 5697 5697 5697 5697 5697 5698 5698
5706 5704 5702 5700 5698 5695 5693 5691 5690 5688 5687 5687 5687 5686 5687 5686 5686 5685 5685 5684 5684 5684 5684 5684 5684 5684 5684 5684 5685 5685 5685 5686 5686 5687 5687 5687 5688 5688 5688 5689 5689 5689 5689
5697 5695 5693 5691 5689 5686 5684 5682 5680 5679 5678 5678 5678 5678 5678 5677 5677 5676 5676 5675 5675 5675 5675 5675 5675 5675 5675 5675 5675 5676 5676 5677 5677 5678 5678 5678 5679 5679 5679 5679 5680 5680 5680
5690 5687 5685 5682 5680 5677 5675 5673 5671 5670 5669 5669 5670 5670 5669 5668 5668 5667 5667 5667 5666 5666 5666 5666 5666 5666 5666 5666 5666 5667 5667 5668 5668 5669 5669 5670 5670 5670 5670 5670 5670 5670 5671
5682 5679 5676 5674 5671 5669 5666 5665 5663 5662 5661 5662 5662 5661 5661 5660 5659 5659 5658 5658 5657 5657 5658 5657 5657 5657 5657 5657 5658 5658 5659 5659 5660 5660 5661 5661 5661 5661 5661 5661 5661 5661 5661
5674 5671 5669 5666 5663 5661 5659 5657 5655 5654 5654 5654 5653 5653 5652 5651 5651 5650 5650 5649 5649 5649 5649 5648 5648 5648 5648 5649 5649 5649 5650 5650 5651 5651 5652 5652 5652 5652 5652 5652 5653 5653 5653
5667 5664 5661 5658 5656 5653 5651 5649 5647 5647 5645 5645 5645 5644 5644 5643 5643 5642 5641 5641 5640 5640 5640 5640 5640 5640 5640 5640 5640 5641 5641 5642 5642 5643 5643 5643 5643 5644 5644 5644 5644 5644 5644
5659 5656 5653 5651 5648 5646 5644 5642 5640 5639 5637 5637 5636 5636 5636 5635 5634 5633 5633 5632 5631 5631 5631 5631 5631 5631 5631 5632 5632 5632 5633 5633 5633 5634 5634 5634 5635 5635 5635 5635 5635 5635 5636
5651 5648 5646 5643 5640 5638 5636 5634 5633 5631 5629 5628 5628 5627 5627 5626 5625 5624 5624 5623 5623 5622 5622 5622 5622 5623 5623 5623 5623 5624 5624 5625 5625 5625 5625 5626 5626 5626 5626 5626 5626 5626 5626
5643 5640 5638 5635 5633 5630 5628 5626 5624 5623 5622 5620 5619 5618 5617 5617 5616 5615 5615 5614 5614 5613 5613 5613 5613 5614 5614 5614 5615 5615 5616 5616 5616 5617 5617 5617 5617 5617 5618 5618 5617 5617 5617
5634 5632 5630 5627 5625 5623 5620 5618 5616 5614 5613 5612 5611 5610 5609 5608 5607 5607 5606 5606 5605 5605 5605 5604 5604 5605 5605 5605 5606 5606 5607 5607 5607 5608 5608 5608 5608 5609 5609 5609 5609 5608 5608
5626 5624 5621 5619 5617 5614 5612 5610 5608 5606 5605 5604 5602 5601 5600 5599 5599 5599 5598 5598 5597 5597 5596 5596 5596 5596 5596 5596 5597 5597 5598 5598 5599 5599 5599 5599 5599 5599 5599 5599 5599 5599 5599
5617 5615 5612 5610 5608 5606 5604 5602 5600 5598 5597 5596 5594 5593 5592 5592 5591 5591 5591 5590 5590 5589 5588 5588 5588 5587 5587 5587 5588 5588 5589 5589 5589 5590 5590 5590 5590 5590 5590 5590 5590 5590 5590
5607 5606 5604 5602 5599 5598 5595 5593 5591 5590 5589 5587 5586 5586 5585 5584 5584 5583 5583 5583 5582 5581 5581 5581 5580 5580 5579 5579 5579 5579 5580 5580 5580 5581 5581 5581 5581 5581 5581 5581 5580 5581 5581
5598 5597 5595 5593 5591 5589 5587 5585 5583 5582 5581 5579 5579 5578 5577 5576 5576 5576 5575 5575 5574 5574 5573 5573 5572 5571 5571 5570 5570 5571 5571 5571 5571 5572 5572 5572 5572 5572 5571 5571 5571 5571 5571
5589 5588 5586 5584 5582 5580 5579 5577 5575 5574 5573 5572 5571 5570 5569 5569 5568 5568 5567 5567 5566 5566 5565 5564 5564 5563 5562 5562 5562 5562 5562 5562 5562 5562 5563 5563 5563 5563 5562 5562 5562 5562 5562
5581 5579 5577 5575 5573 5572 5570 5569 5567 5566 5565 5565 5564 5563 5562 5561 5561 5560 5559 5559 5558 5557 5557 5556 5556 5555 5554 5554 5554 5553 5553 5553 5553 5553 5554 5554 5554 5554 5554 5553 5553 5552 5552
5572 5570 5568 5567 5565 5564 5562 5561 5560 5558 5558 5557 5556 5555 5555 5554 5553 5552 5551 5551 5550 5549 5548 5548 5547 5547 5546 5546 5546 5545 5545 5545 5545 5545 5545 5545 5545 5545 5545 5545 5544 5544 5544